Weather History for KDTW - February, 2014

Change the Weather History Date:

Friday, February 28, 2014

  Actual Average Record
Temperature  
Mean Temperature 9 °F 31 °F  
Max Temperature 18 °F 39 °F 60 °F (1880)
Min Temperature 0 °F 24 °F -2 °F (2015)
Degree Days  
Heating Degree Days 56 34  
Month to date heating degree days 1272 1033  
Since 1 July heating degree days 5250 4553  
Cooling Degree Days 0 0  
Month to date cooling degree days 0 0  
Year to date cooling degree days 0 0  
Moisture  
Dew Point -2 °F    
Average Humidity 56    
Maximum Humidity 67    
Minimum Humidity 45    
Precipitation  
Precipitation 0.00 in 0.08 in 1.24 in (1900)
Month to date precipitation 2.82 2.02  
Year to date precipitation 5.74 3.98  
Snow  
Snow 0.00 in 0.30 in 12.40 in (1900)
Month to date snowfall 23.4 10.2  
Since 1 July snowfall 79.2 33.9  
Snow Depth 12.00 in    
Sea Level Pressure  
Sea Level Pressure 30.29 in    
Wind  
Wind Speed 6 mph (ESE)    
Max Wind Speed 15 mph    
Max Gust Speed 20 mph    
Visibility 10 miles    
Events      
T = Trace of Precipitation, MM = Missing Value Source: NWS Daily Summary

Daily Weather History Graph

Daily Weather History Graph

Search for Another Location

Airport or City:

Trip Planner

Search our weather history database for the weather conditions in past years. The results will help you decide how hot, cold, wet, or windy it might be!

Date:

Astronomy

Feb. 28, 2014 Rise Set
Actual Time 7:10 AM EST 6:22 PM EST
Civil Twilight 6:42 AM EST 6:50 PM EST
Nautical Twilight 6:09 AM EST 7:22 PM EST
Astronomical Twilight 5:37 AM EST 7:55 PM EST
Moon 6:24 AM EST (2/28) 5:58 PM EST (2/28)
Length of Visible Light 12h 08m
Length of Day
11h 11m
Waning Crescent, 1% of the Moon is Illuminated
Feb 28
Waning Crescent
Mar 1
New
Mar 8
First Quarter
Mar 16
Full
Mar 23
Last Quarter

Hourly Weather History & Observations

Time (EST) Temp. Windchill Dew Point Humidity Pressure Visibility Wind Dir Wind Speed Gust Speed Precip Events Conditions
12:53 AM 3.0 °F -4.4 °F -8.0 °F 60% 30.27 in 10.0 mi North 3.5 mph - N/A   Clear
1:53 AM 1.9 °F - -9.0 °F 60% 30.30 in 10.0 mi Calm Calm - N/A   Clear
2:53 AM 1.9 °F -5.6 °F -9.0 °F 60% 30.30 in 10.0 mi North 3.5 mph - N/A   Clear
3:53 AM 1.0 °F -10.3 °F -9.0 °F 63% 30.31 in 10.0 mi NNE 5.8 mph - N/A   Clear
4:53 AM 1.0 °F - -11.0 °F 57% 30.32 in 10.0 mi Calm Calm - N/A   Clear
5:53 AM 1.0 °F -6.7 °F -11.9 °F 55% 30.34 in 10.0 mi NE 3.5 mph - N/A   Clear
6:53 AM -0.0 °F - -11.0 °F 60% 30.36 in 10.0 mi Calm Calm - N/A   Partly Cloudy
7:53 AM 1.0 °F -8.7 °F -11.9 °F 55% 30.38 in 9.0 mi East 4.6 mph - N/A   Partly Cloudy
8:53 AM 5.0 °F -6.9 °F -11.9 °F 46% 30.38 in 10.0 mi East 6.9 mph - N/A   Scattered Clouds
9:53 AM 8.1 °F -4.3 °F -9.9 °F 44% 30.38 in 10.0 mi ESE 8.1 mph - N/A   Scattered Clouds
10:53 AM 10.0 °F 1.8 °F -5.1 °F 51% 30.38 in 10.0 mi ESE 4.6 mph - N/A   Mostly Cloudy
11:53 AM 12.0 °F -2.7 °F -0.0 °F 59% 30.38 in 10.0 mi ESE 12.7 mph - N/A   Mostly Cloudy
12:53 PM 14.0 °F 0.5 °F 1.9 °F 59% 30.35 in 10.0 mi South 11.5 mph - N/A   Scattered Clouds
1:53 PM 15.1 °F 4.2 °F -0.0 °F 51% 30.32 in 10.0 mi SSE 8.1 mph - N/A   Scattered Clouds
2:53 PM 16.0 °F 3.6 °F 1.9 °F 54% 30.29 in 10.0 mi South 10.4 mph - N/A   Scattered Clouds
3:53 PM 17.1 °F 5.8 °F 1.9 °F 52% 30.27 in 10.0 mi SSE 9.2 mph - N/A   Mostly Cloudy
4:53 PM 17.1 °F 5.8 °F 3.0 °F 54% 30.24 in 10.0 mi SSE 9.2 mph - N/A   Mostly Cloudy
5:53 PM 17.1 °F 5.8 °F 3.0 °F 54% 30.22 in 10.0 mi ESE 9.2 mph - N/A   Mostly Cloudy
6:53 PM 18.0 °F 9.8 °F 3.9 °F 54% 30.22 in 10.0 mi ESE 5.8 mph - N/A   Mostly Cloudy
7:53 PM 18.0 °F 11.1 °F 6.1 °F 60% 30.21 in 10.0 mi East 4.6 mph - N/A   Overcast
8:53 PM 18.0 °F 8.7 °F 7.0 °F 62% 30.19 in 10.0 mi East 6.9 mph - N/A   Overcast
9:53 PM 18.0 °F 11.1 °F 8.1 °F 65% 30.19 in 10.0 mi ESE 4.6 mph - N/A   Mostly Cloudy
10:53 PM 17.1 °F 10.0 °F 8.1 °F 68% 30.17 in 10.0 mi ESE 4.6 mph - N/A   Mostly Cloudy
11:53 PM 17.1 °F - 9.0 °F 71% 30.14 in 10.0 mi Calm Calm - N/A   Mostly Cloudy